Regional Weather Roundup
Issued by NWS

Home | Current Version | Previous Version | Text Only | Print | Product List | Glossary Off
Versions: 1 2 3 4 5 6 7 8 9 10 11 12 13 14 15 16 17 18 19 20 21 22 23 24 25 26 27 28 29 30 31 32 33 34 35 36 37 38 39 40 41 42 43 44 45 46 47 48 49 50

029
ASUS43 KFSD 231302
RWRSD

WEATHER ROUNDUP FOR SOUTH DAKOTA
NATIONAL WEATHER SERVICE SIOUX FALLS SD
700 AM CST FRI FEB 23 2018

NOTE: "FAIR" INDICATES FEW OR NO CLOUDS BELOW 12,000 FEET WITH NO
SIGNIFICANT WEATHER AND/OR OBSTRUCTIONS TO VISIBILITY.


SDZ001>005-009-010-012>017-231400-
NORTHWEST AND NORTH CENTRAL SOUTH DAKOTA

CITY           SKY/WX    TMP DP  RH WIND       PRES   REMARKS
BUFFALO          N/A     -5 -10  79 W7        30.08R WCI -19
FAITH            N/A     -5  -8  87 NW17      30.17R WCI -27
MOBRIDGE       MOCLDY    11   4  73 NW12      30.16S WCI  -3
$$

SDZ012>016-024>037-041>051-057-063-072>074-231400-
SOUTHWEST AND SOUTH CENTRAL SOUTH DAKOTA

CITY           SKY/WX    TMP DP  RH WIND       PRES   REMARKS
RAPID CTY ARPT CLEAR     -2  -6  83 CALM      30.15R
PIERRE         CLEAR      2  -1  88 W10       30.21R WCI -14
CUSTER         CLEAR      1  -6  72 NW3       29.99R
ELLSWORTH AFB  CLEAR      3  -4  74 W3        30.14R
PHILIP         CLEAR     -3  -7  82 W10       30.22R WCI -20
PINE RIDGE     CLEAR    -11 -15  82 SE3       30.16S
SPEARFISH        N/A      5  -6  61 CALM      30.11R
WINNER         CLOUDY    11   5  77 W12       30.22R WCI  -3
$$

SDZ004>011-016>023-039-040-231400-
NORTHEAST SOUTH DAKOTA

CITY           SKY/WX    TMP DP  RH WIND       PRES   REMARKS
ABERDEEN       CLEAR      6   5  95 W3        30.18S
WATERTOWN      CLOUDY    20  18  92 W14       30.13R WCI   7
BROOKINGS      CLOUDY    18  17  96 NW17      30.14R WCI   3
SISSETON         N/A     18  16  92 NW10      30.14R WCI   6
$$

SDZ017-020-022-023-036>040-048>070-231400-
SOUTHEAST SOUTH DAKOTA

CITY           SKY/WX    TMP DP  RH WIND       PRES   REMARKS
SIOUX FALLS    FOG       17  15  92 NW15      30.17R VSB 1   WCI   2
HURON          PTCLDY    11   9  92 W7        30.20R WCI   0
CHAMBERLAIN    CLOUDY    11   9  92 SW9       30.22S WCI  -2
MITCHELL       CLEAR     12  10  92 W10       30.20F WCI  -1
YANKTON        CLEAR     10   7  87 W7        30.24R WCI  -1
$$

ABBREVIATIONS USED IN REMARKS
   TC - TEMPERATURE IN CELSIUS
  WCI - WIND CHILL INDEX
   HX - HEAT INDEX
  VSB - VISIBILITY





USA.gov is the U.S. government's official web portal to all federal, state and local government web resources and services.